TimeCST,TemperatureF,Dew PointF,Humidity,Sea Level PressureIn,VisibilityMPH,Wind Direction,Wind SpeedMPH,Gust SpeedMPH,PrecipitationIn,Events,Conditions,WindDirDegrees,DateUTC
12:15 AM,50.0,46.4,87,29.96,7.0,East,5.8,-,N/A,,Overcast,80,2012-12-09 06:15:00
12:35 AM,50.0,46.4,87,29.95,7.0,ENE,3.5,-,N/A,,Overcast,60,2012-12-09 06:35:00
12:55 AM,50.0,46.4,87,29.94,7.0,East,5.8,-,N/A,,Overcast,90,2012-12-09 06:55:00
1:15 AM,50.0,46.4,87,29.93,7.0,East,5.8,-,N/A,,Overcast,80,2012-12-09 07:15:00
1:35 AM,50.0,46.4,87,29.93,7.0,East,5.8,-,N/A,,Overcast,90,2012-12-09 07:35:00
1:55 AM,50.0,46.4,87,29.92,7.0,East,5.8,-,N/A,,Overcast,80,2012-12-09 07:55:00
2:15 AM,50.0,46.4,87,29.92,7.0,ENE,5.8,-,N/A,,Overcast,70,2012-12-09 08:15:00
2:35 AM,50.0,46.4,87,29.92,7.0,East,3.5,-,N/A,,Overcast,80,2012-12-09 08:35:00
2:55 AM,50.0,46.4,87,29.90,7.0,East,5.8,-,N/A,,Unknown,80,2012-12-09 08:55:00
3:15 AM,50.0,46.4,87,29.89,5.0,East,8.1,-,N/A,,Overcast,90,2012-12-09 09:15:00
3:35 AM,50.0,46.4,87,29.88,5.0,ESE,10.4,-,N/A,,Overcast,110,2012-12-09 09:35:00
3:55 AM,50.0,46.4,87,29.87,5.0,East,5.8,-,N/A,,Overcast,90,2012-12-09 09:55:00
4:15 AM,50.0,46.4,87,29.87,5.0,East,5.8,-,N/A,,Overcast,100,2012-12-09 10:15:00
4:35 AM,50.0,46.4,87,29.86,5.0,East,5.8,-,N/A,,Overcast,100,2012-12-09 10:35:00
4:55 AM,50.0,46.4,87,29.86,5.0,ESE,5.8,-,N/A,,Overcast,110,2012-12-09 10:55:00
5:15 AM,50.0,48.2,94,29.86,5.0,SE,3.5,-,N/A,,Overcast,130,2012-12-09 11:15:00
5:35 AM,50.0,48.2,94,29.86,5.0,SE,5.8,-,N/A,Rain,Light Rain,140,2012-12-09 11:35:00
6:55 AM,51.8,51.8,100,29.85,3.0,SE,5.8,-,N/A,,Mostly Cloudy,140,2012-12-09 12:55:00
7:55 AM,53.6,53.6,100,29.85,3.0,South,5.8,-,N/A,,Overcast,170,2012-12-09 13:55:00
8:55 AM,55.4,55.4,100,29.86,3.0,South,5.8,-,N/A,,Overcast,180,2012-12-09 14:55:00
9:55 AM,55.4,55.4,100,29.86,3.0,South,5.8,-,N/A,,Overcast,190,2012-12-09 15:55:00
10:55 AM,57.2,57.2,100,29.84,5.0,South,5.8,-,N/A,,Overcast,190,2012-12-09 16:55:00
11:55 AM,60.8,59.0,94,29.80,7.0,South,9.2,-,N/A,,Mostly Cloudy,190,2012-12-09 17:55:00
12:34 PM,60.8,59.0,94,29.78,1.2,SSE,9.2,-,N/A,Rain-Thunderstorm,Thunderstorms and Rain,160,2012-12-09 18:34:00
12:55 PM,62.6,60.8,94,29.78,10.0,South,9.2,-,N/A,,Overcast,190,2012-12-09 18:55:00
1:55 PM,62.6,60.8,94,29.78,2.0,West,10.4,-,N/A,Rain-Thunderstorm,Heavy Thunderstorms and Rain,280,2012-12-09 19:55:00
2:10 PM,60.8,60.8,100,29.77,4.0,SSW,6.9,-,N/A,Rain-Thunderstorm,Thunderstorms and Rain,210,2012-12-09 20:10:00
2:55 PM,60.8,60.8,100,29.75,7.0,SSW,5.8,-,N/A,Rain,Light Rain,210,2012-12-09 20:55:00
3:55 PM,60.8,60.8,100,29.74,5.0,NW,4.6,-,N/A,Rain-Thunderstorm,Thunderstorms and Rain,310,2012-12-09 21:55:00
4:55 PM,59.0,59.0,100,29.74,2.5,North,9.2,-,N/A,Rain-Thunderstorm,Heavy Thunderstorms and Rain,360,2012-12-09 22:55:00
5:45 PM,55.4,55.4,100,29.78,7.0,NW,9.2,-,N/A,Rain,Rain,320,2012-12-09 23:45:00
6:55 PM,51.8,50.0,94,29.81,5.0,NNW,11.5,18.4,0.01,,Overcast,330,2012-12-10 00:55:00
7:15 PM,51.8,50.0,94,29.81,7.0,NW,4.6,-,N/A,,Overcast,320,2012-12-10 01:15:00
7:35 PM,51.8,50.0,94,29.81,7.0,NNW,4.6,-,N/A,,Overcast,330,2012-12-10 01:35:00
7:55 PM,50.0,50.0,100,29.80,7.0,NNW,3.5,-,N/A,,Overcast,330,2012-12-10 01:55:00
8:15 PM,50.0,50.0,100,29.82,7.0,WNW,3.5,-,N/A,,Overcast,290,2012-12-10 02:15:00
8:35 PM,50.0,48.2,94,29.82,7.0,NNW,6.9,-,N/A,,Overcast,330,2012-12-10 02:35:00
8:55 PM,50.0,48.2,94,29.82,7.0,NW,8.1,-,N/A,,Overcast,320,2012-12-10 02:55:00
9:15 PM,50.0,46.4,87,29.83,7.0,NW,9.2,-,N/A,,Overcast,320,2012-12-10 03:15:00
9:35 PM,50.0,46.4,87,29.84,7.0,NW,6.9,-,N/A,,Overcast,320,2012-12-10 03:35:00
9:55 PM,46.4,44.6,93,29.85,5.0,NW,10.4,18.4,N/A,,Overcast,310,2012-12-10 03:55:00
10:15 PM,46.4,44.6,93,29.86,7.0,NNW,9.2,-,N/A,,Overcast,330,2012-12-10 04:15:00
10:35 PM,46.4,44.6,93,29.85,7.0,NW,9.2,16.1,N/A,,Overcast,320,2012-12-10 04:35:00
10:55 PM,46.4,44.6,93,29.86,7.0,NW,6.9,-,N/A,,Overcast,310,2012-12-10 04:55:00
11:15 PM,46.4,42.8,87,29.88,7.0,NW,9.2,-,N/A,,Overcast,310,2012-12-10 05:15:00
11:35 PM,46.4,42.8,87,29.86,10.0,NNW,10.4,-,N/A,,Overcast,330,2012-12-10 05:35:00
11:55 PM,46.4,42.8,87,29.86,10.0,NW,10.4,-,N/A,,Overcast,310,2012-12-10 05:55:00